Location: East Irvine
(33.6759°N, 117.7598°W)
Time: 01:37:39
(UTC+00:00)

DNEPR-1 R/B - Pass Details

Date: 15 November 2025
Orbit: 588 x 1326 km, 64.6° (Epoch: 07 December)

Event Time Altitude Azimuth Distance (km) Brightness Sun altitude
Rises 02:03:06 0° 327° (NNW) 2,965 7.3 -15.7°
Reaches altitude 10° 02:05:14 10° 324° (NW) 2,118 6.6 -16.1°
Maximum altitude 02:09:59 66° 243° (WSW) 828 4.4 -17.1°
Drops below altitude 10° 02:15:40 10° 162° (SSE) 2,525 6.6 -18.3°
Sets 02:18:25 0° 160° (SSE) 3,587 7.4 -18.8°
